[[{"header":{"parameterUnit":"m.s-1","parameterCategory":1,"la1":30.2991,"la2":30.254,"lo1":-89.0895,"lo2":-89.0444,"dy":0.0017,"dx":0.0017,"nx":28,"ny":28,"refTime":"2025-08-03T03:00:00:Z","depth":0,"parameterNumber":2,"parameterNumberName":"U-component_of_WINDS"},"data":[0,0,0,0,0,0,0,0,0,0,0,0,0,0,0,0,0,0,0,0,0,0,0,0,0,0,0,0,0,0,0,0,0,0,0,0,0,0,0,0,0,0,0,0,0,0,0,0,0,0,0,0,0,0,0,0,0,0,1.336,1.336,0,1.3338,1.3337,1.3337,1.3326,1.3326,1.3326,1.3326,1.3303,1.3302,1.3302,0,0,0,0,0,0,0,0,0,0,0,0,0,1.3395,1.3394,1.336,1.336,1.336,1.3338,1.3337,1.3337,1.3326,1.3326,1.3326,1.3326,1.3303,1.3302,1.3302,0,0,0,0,0,0,0,0,0,0,0,0,0,1.3377,1.3394,1.336,1.3351,1.335,1.3338,1.3337,1.3337,1.3326,1.3326,1.3326,1.3326,1.3303,1.3303,1.3302,1.3297,0,0,1.3299,1.3299,0,0,0,0,0,0,0,0,1.3378,1.3375,1.3353,1.3352,1.3351,1.3334,1.3341,1.3323,1.3326,1.3335,1.3326,1.3325,1.3313,1.3312,1.3308,1.3296,1.3295,1.3299,1.3298,1.3298,1.3298,0,0,0,0,0,0,0,1.3379,1.3376,1.3351,1.3352,1.3351,1.3349,1.3346,1.3338,1.3325,1.3334,1.3333,1.3331,1.3313,1.3308,1.3307,1.3294,1.3299,1.3298,1.3298,1.3297,1.3278,1.3278,0,0,0,0,0,0,1.3382,1.3378,1.3352,1.335,1.3364,1.3348,1.3345,1.334,1.3325,1.3322,1.3331,1.333,1.331,1.3308,1.3306,1.33,1.3298,1.3297,1.3297,1.3278,1.3278,1.3278,0,0,0,0,0,0,1.3382,1.3379,1.3353,1.3364,1.336,1.3348,1.3341,1.3339,1.3335,1.3322,1.332,1.3328,1.331,1.3307,1.3299,1.3299,1.3297,1.3296,1.3278,1.3278,1.3278,1.3287,0,0,0,0,0,0,1.3383,1.338,1.3377,1.3364,1.336,1.3346,1.3341,1.3339,1.3333,1.3332,1.3319,1.3317,1.331,1.3301,1.3298,1.3298,1.3295,1.3278,1.3278,1.3278,1.3286,1.3287,1.3288,0,0,0,0,0,1.3385,1.338,1.3377,1.3374,1.3356,1.3346,1.3343,1.3335,1.3333,1.3331,1.3323,1.3318,1.3299,1.33,1.3297,1.3296,1.3278,1.3278,1.3278,1.3286,1.3287,1.3288,0,0,0,0,0,0,1.3393,1.3378,1.3375,1.3365,1.3357,1.3344,1.334,1.3336,1.3327,1.3327,1.3317,1.3314,1.3307,1.3301,1.3302,1.3291,1.3288,1.3288,1.3295,1.3296,1.3296,1.3298,1.3295,0,0,0,0,0,1.3394,1.3387,1.3374,1.3368,1.3364,1.3353,1.3348,1.3342,1.3333,1.3329,1.3321,1.3313,1.3305,1.33,1.3292,1.3286,1.3283,1.3284,1.3285,1.3285,1.3285,1.3282,1.3282,1.3279,1.3279,1.3279,0,0,1.3396,1.3387,1.3383,1.3369,1.3362,1.3355,1.335,1.3342,1.3337,1.3328,1.332,1.3314,1.3304,1.3297,1.3293,1.3292,1.3285,1.3285,1.3286,1.3285,1.3282,1.3282,1.3282,1.3279,1.3279,1.3279,0,0,1.3396,1.3388,1.3382,1.3375,1.3364,1.3358,1.3356,1.3344,1.334,1.3331,1.3325,1.3319,1.3306,1.33,1.3295,1.3294,1.3289,1.3292,1.3295,1.3292,1.3292,1.3292,1.3292,1.3292,1.3291,1.3292,1.3292,0,1.3399,1.3388,1.3379,1.3373,1.3367,1.3359,1.3354,1.3348,1.3335,1.3332,1.333,1.3315,1.3307,1.3299,1.3299,1.3295,1.3294,1.3293,1.3293,1.3293,1.3293,1.3293,1.3293,1.3292,1.3292,1.3292,1.3292,0,1.3393,1.3386,1.3382,1.3371,1.3365,1.3359,1.335,1.3346,1.3341,1.3335,1.3327,1.3318,1.3309,1.3307,1.3302,1.3298,1.3298,1.3295,1.3291,1.3294,1.3294,1.3293,1.3293,1.3292,1.3292,1.3292,0,0,1.3396,1.3381,1.338,1.3375,1.3364,1.3358,1.3352,1.3344,1.334,1.3332,1.3328,1.3318,1.3315,1.331,1.3304,1.3302,1.3302,1.3299,1.3298,1.33,1.3299,1.3301,1.3301,1.3299,1.3299,1.3299,1.33,0,1.3394,1.3383,1.3376,1.3368,1.3361,1.3355,1.335,1.3343,1.3337,1.3331,1.3325,1.3318,1.3315,1.3312,1.3309,1.3303,1.3302,1.3303,1.3295,1.3295,1.3298,1.3301,1.3303,1.3303,1.3299,1.3299,1.3299,0,1.339,1.3383,1.3374,1.3365,1.3362,1.3357,1.3349,1.3344,1.3336,1.3332,1.3327,1.3322,1.3316,1.3314,1.3307,1.3308,1.3304,1.3301,1.3301,1.3299,1.3297,1.33,1.3303,1.3303,1.3299,1.3299,1.3299,0,1.3393,1.3382,1.3375,1.3371,1.336,1.3357,1.3352,1.3345,1.334,1.3334,1.3331,1.3324,1.332,1.3315,1.3308,1.3307,1.3302,1.3299,1.3299,1.3299,1.3297,1.3297,1.3301,1.3296,1.3296,1.3296,1.3296,0,1.3392,1.3387,1.3377,1.3373,1.3367,1.336,1.3355,1.335,1.3343,1.3339,1.3333,1.3328,1.332,1.3315,1.331,1.3305,1.3303,1.33,1.3299,1.3301,1.3301,1.3298,1.3298,1.3296,1.3296,1.3296,1.3296,0,1.3394,1.3387,1.338,1.337,1.3368,1.3364,1.3356,1.3353,1.3347,1.3342,1.334,1.3332,1.3326,1.3319,1.3311,1.3307,1.3303,1.3301,1.3305,1.3304,1.3305,1.3305,1.3306,1.3306,1.3301,1.3301,1.3301,0,1.3393,1.3389,1.338,1.3376,1.3372,1.3366,1.3362,1.3355,1.3351,1.3343,1.3341,1.3334,1.3329,1.332,1.3313,1.3307,1.3305,1.3306,1.3304,1.3306,1.3305,1.3306,1.3305,1.3306,1.3306,1.3306,1.3306,0,1.3393,1.339,1.3384,1.3378,1.3373,1.3367,1.3362,1.3359,1.3351,1.3347,1.3341,1.3337,1.3329,1.3323,1.3317,1.3312,1.3308,1.3307,1.3307,1.3308,1.3311,1.331,1.3306,1.3307,1.3307,1.3307,1.3307,1.3307,1.3394,1.339,1.3383,1.3377,1.3373,1.3368,1.3364,1.3359,1.3354,1.3347,1.3343,1.3338,1.3331,1.3322,1.3318,1.3314,1.3312,1.3312,1.3312,1.3312,1.3312,1.3312,1.3313,1.3313,1.3313,1.3313,1.3313,0,1.3393,1.3388,1.3383,1.3376,1.3371,1.3369,1.3363,1.3359,1.3354,1.3349,1.3344,1.3338,1.3332,1.3326,1.332,1.3318,1.3316,1.3317,1.3317,1.3316,1.3314,1.3315,1.3319,1.3319,1.3319,1.3319,1.3319,1.3319,1.3392,1.3386,1.3383,1.3376,1.3371,1.3366,1.3363,1.3359,1.3354,1.3348,1.3343,1.3339,1.3334,1.3328,1.3323,1.3322,1.332,1.3321,1.3319,1.3317,1.3316,1.3316,1.3316,1.3321,1.3321,1.3322,1.3322,1.3322]},{"header":{"parameterUnit":"m.s-1","parameterCategory":1,"la1":30.2991,"la2":30.254,"lo1":-89.0895,"lo2":-89.0444,"dy":0.0017,"dx":0.0017,"nx":28,"ny":28,"refTime":"2025-08-03T03:00:00:Z","depth":0,"parameterNumber":3,"parameterNumberName":"V-component_of_WINDS"},"data":[0,0,0,0,0,0,0,0,0,0,0,0,0,0,0,0,0,0,0,0,0,0,0,0,0,0,0,0,0,0,0,0,0,0,0,0,0,0,0,0,0,0,0,0,0,0,0,0,0,0,0,0,0,0,0,0,0,0,-0.2183,-0.2183,0,-0.2199,-0.2199,-0.2199,-0.2182,-0.2182,-0.2181,-0.218,-0.2198,-0.2199,-0.22,0,0,0,0,0,0,0,0,0,0,0,0,0,-0.214,-0.2141,-0.2183,-0.2183,-0.2183,-0.2199,-0.2199,-0.2199,-0.2182,-0.2182,-0.2181,-0.218,-0.2198,-0.2199,-0.22,0,0,0,0,0,0,0,0,0,0,0,0,0,-0.2158,-0.2141,-0.2183,-0.2177,-0.2176,-0.2199,-0.2199,-0.2199,-0.2183,-0.2182,-0.2181,-0.218,-0.2197,-0.2199,-0.22,-0.223,0,0,-0.2205,-0.2206,0,0,0,0,0,0,0,0,-0.2157,-0.2159,-0.2177,-0.2177,-0.2177,-0.2187,-0.219,-0.2209,-0.2183,-0.218,-0.218,-0.2179,-0.2195,-0.2197,-0.2202,-0.2231,-0.2231,-0.2205,-0.2206,-0.2207,-0.2208,0,0,0,0,0,0,0,-0.2156,-0.2159,-0.2189,-0.2178,-0.2177,-0.2174,-0.2175,-0.2194,-0.2193,-0.218,-0.2179,-0.2181,-0.2195,-0.2201,-0.2203,-0.2232,-0.2205,-0.2207,-0.2208,-0.2208,-0.2288,-0.2289,0,0,0,0,0,0,-0.2155,-0.2158,-0.2188,-0.2189,-0.2164,-0.2176,-0.2177,-0.2185,-0.2193,-0.2193,-0.2182,-0.218,-0.2198,-0.2201,-0.2203,-0.224,-0.2207,-0.2209,-0.221,-0.2287,-0.2288,-0.2289,0,0,0,0,0,0,-0.2154,-0.2158,-0.2188,-0.2173,-0.2177,-0.2177,-0.2186,-0.2186,-0.2192,-0.2194,-0.2194,-0.2188,-0.2198,-0.2201,-0.2224,-0.224,-0.2209,-0.2211,-0.2285,-0.2287,-0.2289,-0.2313,0,0,0,0,0,0,-0.2153,-0.2157,-0.2168,-0.2174,-0.2178,-0.2208,-0.2187,-0.2187,-0.2194,-0.2192,-0.22,-0.22,-0.2197,-0.2222,-0.2225,-0.2242,-0.2212,-0.2284,-0.2286,-0.2288,-0.2311,-0.2315,-0.2319,0,0,0,0,0,-0.2151,-0.2174,-0.2169,-0.2172,-0.2191,-0.2209,-0.2211,-0.2207,-0.2195,-0.2207,-0.2209,-0.22,-0.2238,-0.2224,-0.2228,-0.2246,-0.2283,-0.2285,-0.2288,-0.2309,-0.2314,-0.2319,0,0,0,0,0,0,-0.217,-0.2174,-0.2169,-0.2194,-0.2201,-0.2206,-0.222,-0.2213,-0.2224,-0.2221,-0.2217,-0.2218,-0.2243,-0.2246,-0.2231,-0.2276,-0.2258,-0.2262,-0.2273,-0.2278,-0.2282,-0.2282,-0.2213,0,0,0,0,0,-0.2177,-0.2191,-0.2194,-0.2216,-0.222,-0.2219,-0.2227,-0.2223,-0.2231,-0.2234,-0.2237,-0.2245,-0.226,-0.2269,-0.2281,-0.2311,-0.2313,-0.2325,-0.2329,-0.2333,-0.2336,-0.2355,-0.236,-0.2298,-0.2298,-0.2297,0,0,-0.2192,-0.2196,-0.2205,-0.222,-0.2225,-0.224,-0.2222,-0.2238,-0.225,-0.2236,-0.2259,-0.2262,-0.2271,-0.2298,-0.231,-0.2301,-0.2354,-0.2336,-0.2339,-0.234,-0.2358,-0.2364,-0.2369,-0.2299,-0.2299,-0.2299,0,0,-0.2227,-0.2231,-0.225,-0.2256,-0.2264,-0.2264,-0.2269,-0.2275,-0.2277,-0.2299,-0.229,-0.2304,-0.2327,-0.2335,-0.2342,-0.2382,-0.2375,-0.2386,-0.2409,-0.2427,-0.2432,-0.2436,-0.2452,-0.2458,-0.2389,-0.2389,-0.2389,0,-0.2245,-0.2267,-0.2261,-0.2279,-0.2287,-0.2275,-0.2296,-0.2302,-0.2314,-0.232,-0.231,-0.2341,-0.2346,-0.2376,-0.2386,-0.2391,-0.2398,-0.2386,-0.2431,-0.2435,-0.244,-0.2455,-0.2461,-0.2391,-0.2391,-0.239,-0.239,0,-0.2289,-0.2305,-0.2319,-0.2332,-0.2341,-0.236,-0.2359,-0.2369,-0.2365,-0.2366,-0.2391,-0.2396,-0.2411,-0.2417,-0.2413,-0.2447,-0.2442,-0.2432,-0.2414,-0.2447,-0.2462,-0.2468,-0.2393,-0.2392,-0.2392,-0.2391,0,0,-0.2337,-0.2347,-0.2353,-0.2359,-0.2368,-0.238,-0.24,-0.2414,-0.2424,-0.2433,-0.245,-0.2471,-0.2462,-0.247,-0.2467,-0.2482,-0.2517,-0.247,-0.2471,-0.2481,-0.2557,-0.2567,-0.2573,-0.2511,-0.2512,-0.2513,-0.2557,0,-0.2374,-0.2407,-0.2404,-0.2436,-0.2451,-0.2441,-0.2458,-0.2466,-0.2468,-0.2483,-0.2485,-0.2501,-0.2486,-0.2491,-0.2506,-0.2509,-0.2532,-0.2506,-0.2529,-0.253,-0.253,-0.2581,-0.259,-0.2631,-0.2563,-0.2564,-0.2564,0,-0.2421,-0.2433,-0.2467,-0.2475,-0.2482,-0.2497,-0.2511,-0.2524,-0.2534,-0.2534,-0.2544,-0.2539,-0.256,-0.2541,-0.2571,-0.2553,-0.2563,-0.2566,-0.2568,-0.2571,-0.2551,-0.2588,-0.2644,-0.2651,-0.2573,-0.2572,-0.2572,0,-0.2456,-0.2479,-0.2503,-0.2509,-0.2519,-0.253,-0.2535,-0.2543,-0.2553,-0.2565,-0.2572,-0.2587,-0.2595,-0.2608,-0.2607,-0.2593,-0.2639,-0.2619,-0.2641,-0.2642,-0.2653,-0.2652,-0.2713,-0.2655,-0.2655,-0.2655,-0.2655,0,-0.2498,-0.252,-0.2519,-0.2534,-0.2559,-0.2555,-0.258,-0.2583,-0.2591,-0.2608,-0.2599,-0.2615,-0.2612,-0.2629,-0.2628,-0.2655,-0.2658,-0.2661,-0.2661,-0.2662,-0.2663,-0.267,-0.2668,-0.2657,-0.2656,-0.2656,-0.2656,0,-0.2541,-0.2541,-0.2567,-0.2574,-0.2577,-0.2595,-0.2602,-0.2617,-0.2618,-0.264,-0.2644,-0.2647,-0.2666,-0.2666,-0.2688,-0.2688,-0.2721,-0.2716,-0.2718,-0.2718,-0.2741,-0.2739,-0.281,-0.282,-0.2754,-0.2754,-0.2755,0,-0.257,-0.2586,-0.2596,-0.2606,-0.2612,-0.2629,-0.2639,-0.2636,-0.2647,-0.266,-0.2674,-0.2692,-0.2707,-0.2738,-0.2742,-0.2759,-0.2757,-0.2781,-0.2759,-0.2762,-0.276,-0.276,-0.2763,-0.2785,-0.2786,-0.2787,-0.2787,0,-0.2621,-0.262,-0.2635,-0.265,-0.2663,-0.2674,-0.2685,-0.2694,-0.2693,-0.2706,-0.2726,-0.2737,-0.276,-0.2779,-0.2795,-0.2801,-0.2795,-0.2794,-0.28,-0.2803,-0.2804,-0.2806,-0.2731,-0.2792,-0.2792,-0.2791,-0.2791,-0.2791,-0.2659,-0.2674,-0.2684,-0.2701,-0.2709,-0.272,-0.2735,-0.2739,-0.2755,-0.2773,-0.277,-0.2793,-0.2804,-0.2826,-0.2833,-0.2851,-0.2843,-0.2852,-0.2855,-0.2857,-0.2861,-0.28,-0.2854,-0.2854,-0.2854,-0.2854,-0.2854,0,-0.2711,-0.2717,-0.2733,-0.2749,-0.2763,-0.2755,-0.2767,-0.278,-0.28,-0.281,-0.2825,-0.2849,-0.2867,-0.2874,-0.2892,-0.2906,-0.2904,-0.2911,-0.2911,-0.2913,-0.2866,-0.286,-0.2913,-0.2913,-0.2913,-0.2913,-0.2913,-0.2913,-0.2741,-0.2767,-0.2768,-0.2799,-0.2804,-0.2826,-0.2834,-0.2845,-0.2854,-0.288,-0.2896,-0.29,-0.2909,-0.2929,-0.2947,-0.2948,-0.2956,-0.2966,-0.2966,-0.2922,-0.2916,-0.2911,-0.2905,-0.2967,-0.2967,-0.3012,-0.3013,-0.3013]}]]